Location: Carrières
(48.9495°N, 2.0407°E)
Time: 06:53:22
(UTC+00:00)

Cosmos 1536 Rocket - Pass Details

Date: 28 January 2023
Orbit: 604 x 630 km, 82.5° (Epoch: 24 March)

Event Time Altitude Azimuth Distance (km) Brightness Sun altitude
Rises 18:11:24 0° 179° (S) 2,848 7.1 -14.6°
Reaches altitude 10° 18:13:37 10° 176° (S) 1,948 6.2 -15.0°
Maximum altitude 18:17:51 62° 96° (E) 687 3.5 -15.7°
Drops below altitude 10° 18:22:09 10° 16° (NNE) 1,967 5.9 -16.4°
Enters shadow 18:24:09 - 13° (NNE) 2,782 6.7 -16.7°
